Regional Weather Roundup
Issued by NWS Charleston, SC

Current Version | Previous Version | Text Only | Print | Product List | Glossary Off
Versions: 1 2 3 4 5 6 7 8 9 10 11 12 13 14 15 16 17 18 19 20 21 22 23 24 25 26 27 28 29 30 31 32 33 34 35 36 37 38 39 40 41 42 43 44 45 46 47 48 49 50
000 ASUS42 KCHS 221027 RWRCHS Regional Weather Roundup National Weather Service Charleston SC 600 AM EDT SUN APR 22 2018 NOTE: "fair" indicates few or no clouds below 12,000 feet with no significant weather and/or obstructions to visibility. Not all stations are quality controlled. Use data with caution, especially dewpoint observations. SCZ027-030-031-034>040-042>050-221100- ...Southeast South Carolina... CITY SKY/WX TMP DP RH WIND PRES REMARKS N Charleston MOCLDY 58 55 90 NE8 30.27S Waterfront Prk NOT AVBL Mount Pleasant FAIR 57 55 94 CALM 30.28S Johns Island FAIR 63 55 77 NE8 30.27S Pinopolis N/A 57 55 94 E9 30.19F Moncks Corner PTSUNNY 54 50 87 E7 30.29R Summerville PTSUNNY 54 52 94 CALM 30.30R Beaufort MCAS MOCLDY 62 58 86 E6 30.26R Beaufort Arpt FAIR 61 55 82 E8 30.26R Hilton Head Is FAIR 64 59 82 NE6 30.26R Walterboro PTSUNNY 55 54 94 NE6 30.29R Allendale CLOUDY 57 54 88 CALM 30.27S ...Southern Midlands and Pee Dee... CITY SKY/WX TMP DP RH WIND PRES REMARKS Georgetown FAIR 54 54 100 NE5 30.31S Kingstree CLOUDY 50 46 87 CALM 30.31S Orangeburg CLOUDY 56 52 86 NE5 30.29S Barnwell CLOUDY 57 52 82 CALM 30.28S Aiken CLOUDY 54 50 87 NE5 30.32R Manning FAIR 48 46 93 E3 30.30S Columbia MOCLDY 56 51 84 E5 30.30S Sumter MOCLDY 49 46 88 NE3 30.28F Florence FAIR 47 44 90 E3 30.32S Myrtle Beach FAIR 53 49 86 N5 30.33R N Myrtle Beach FAIR 50 47 89 NE3 30.32R $$ GAZ063-065-086>088-099>101-113>116-118-119-134>141-150-221100- ...Southeast Georgia... CITY SKY/WX TMP DP RH WIND PRES REMARKS Savannah Arpt MOCLDY 63 58 83 E7 30.24R Hunter AAF MOCLDY 64 59 84 CALM 30.22R Fort Stewart FAIR 56 54 94 NE5 30.21S Statesboro FAIR 57 32 39 CALM 30.25S Sylvania FAIR 55 55 100 E5 30.27S Claxton FAIR 57 56 94 NE5 30.23F ...CSRA, Central and far Southeast Georgia... CITY SKY/WX TMP DP RH WIND PRES REMARKS Thomson MOCLDY 56 51 82 S6 30.32R Augusta-Bush CLOUDY 58 52 80 CALM 30.27S Augusta-Daniel CLOUDY 60 52 74 E5 30.28S Swainsboro PTSUNNY 55 54 94 E6 30.25S Vidalia CLOUDY 59 55 88 NE6 30.23S Eastman CLOUDY 62 51 66 E7 30.23S Hazlehurst FAIR 60 55 85 E5 30.20S Alma CLOUDY 62 58 86 E5 30.20R Waycross CLOUDY 62 59 91 E5 30.20R Jesup NOT AVBL Baxley CLOUDY 57 57 100 CALM 30.22R Brunswick MOCLDY 61 59 94 E7 30.21S Saint Simons MOCLDY 66 62 87 E7 30.20S $$ SCZ027-028-034-036>038-045-046-048>050-GAZ119-141-221100- ...Lake and Supplemental Coastal Observations... STATION/POSITION TIME TEMP WIND PRES WAVE SWELL AIR SEA DIR/SP/G HT/PER HT/PER/DIR (UTC) (F) (DEG/KT/KT) (MB) (FT/S) (FT/S/D) Winyah Bay 0945 60 50/ 7 1026.0S Lake Murray 0920 55 80/ 4/ 5 1025.4 ACE Basin NERRS 0945 60 350/ 3 N/A Fort Pulaski 1000 65 65 90/ 10/ 12 1024.2 Sapelo Island 1000 65 70/ 3 1023.0 $$ ANZ835-935-AMZ111-154-330-350-352-354-370-450-454-472-221100- ...C-MAN and Buoy Observations... STATION/POSITION TIME TEMP WIND PRES WAVE SWELL AIR SEA DIR/SP/G HT/PER HT/PER/DIR (UTC) (F) (DEG/KT/KT) (MB) (FT/S) (FT/S/D) Buoy 41004 1010 67 67 100/ 10/ 14 1025.0 Buoy 41008 0950 66 65 80/ 10/ 12 1023.1R 5/ 7 5/110/ 7 Folly Beach CMAN 1000 63 60/ 13/ 15 1025.4S Capers Nearshore 1008 63 63 60/ 14/ 19 1025.1F Fripp Nearshore 1008 64 63 70/ 8/ 10 1024.3R STATION/POSITION TIME TEMP WIND PRES WAVE SWELL AIR SEA DIR/SP/G HT/PER HT/PER/DIR (UTC) (F) (DEG/KT/KT) (MB) (FT/S) (FT/S/D) 5E St. Marys GA 1000 66 N/A 5/ 7 Frying Pan Buoy 1010 67 69 80/ 12/ 14 1026.1 Buoy 41025 1010 58 74 10/ 10/ 14 1028.8 Cape Lookout NC 1000 70/ 8/ 9 1028.0R Buoy 41002 1010 65 72 60/ 12/ 16 1025.7 Buoy 41010 1010 72 76 80/ 19/ 23 1021.9 St Augustine FL 1000 69 67 100/ 15/ 16 1021.8S $$

USA.gov is the U.S. government's official web portal to all federal, state and local government web resources and services.